Wind_Speed
20 20 21 24 22 16 14 14 14 15 16 16 16 15 14 14 14 14 14 13 14 15 15 16 16 16 17 17 17 18 18 18 18 17 17 16 15 16 16 16 15 15
21 22 23 25 24 18 16 14 14 16 16 16 16 15 14 14 15 15 14 14 15 16 16 16 16 16 16 17 17 18 18 18 17 16 16 16 16 15 16 17 16 15
22 22 23 25 25 20 16 15 15 16 16 16 17 15 15 15 15 15 15 15 16 17 17 16 16 16 17 17 18 18 18 18 18 18 18 17 17 16 16 17 18 17
23 23 24 25 23 20 17 16 16 16 16 17 16 16 16 16 15 15 16 16 17 18 18 17 17 18 18 18 19 19 20 20 20 20 20 19 18 18 17 17 18 18
24 23 23 24 22 20 18 17 17 16 16 15 15 16 17 17 16 16 17 17 19 19 19 19 19 19 19 19 20 21 21 21 20 20 19 19 19 19 18 17 18 17
25 22 22 23 23 21 19 18 18 17 15 14 14 17 18 18 17 18 18 19 20 20 20 20 20 20 20 19 19 20 20 19 19 18 17 18 18 19 18 17 17 17
23 23 22 22 23 22 20 19 19 19 18 16 17 19 20 19 19 19 20 20 21 21 21 20 20 20 19 18 17 17 18 18 19 19 19 19 19 19 18 17 18 18
21 23 23 23 23 22 21 19 19 20 19 17 19 20 20 20 21 21 21 21 20 21 20 20 19 19 18 17 17 16 17 18 19 20 20 20 20 20 19 19 20 20
20 21 22 22 22 22 21 21 21 20 18 18 19 20 20 20 21 21 20 20 19 20 20 19 19 19 18 18 18 18 18 18 19 20 21 21 21 21 20 21 21 21
19 21 21 21 21 21 21 22 22 20 19 20 19 19 19 19 19 19 19 19 19 20 20 19 19 19 18 18 18 18 18 19 20 21 21 22 22 21 21 21 21 21
19 21 22 22 22 21 21 21 22 21 22 22 21 20 19 19 19 19 20 20 20 20 20 20 20 19 19 19 18 17 17 18 20 21 22 22 22 22 21 21 20 20
22 23 24 25 25 23 22 22 21 22 23 23 21 21 21 21 21 21 21 20 20 21 21 20 20 19 19 19 19 18 18 18 20 21 22 22 23 22 21 21 20 20
25 26 27 28 27 24 22 22 22 23 23 23 23 22 23 23 23 23 22 21 21 22 22 21 20 20 20 20 20 20 19 19 20 21 22 23 22 22 22 21 21 19
25 27 27 27 27 25 23 23 23 24 24 25 25 25 25 25 24 24 23 23 23 24 24 23 22 21 21 21 21 21 21 20 21 21 23 23 23 23 23 23 23 22
23 24 25 24 24 24 24 24 24 24 25 26 26 26 25 25 25 24 23 24 25 25 25 25 23 23 23 23 22 22 22 22 21 22 23 24 24 24 25 25 25 24
24 24 23 23 23 23 23 24 24 24 25 26 26 26 25 24 24 24 24 24 25 26 26 25 24 24 24 24 24 23 23 22 22 22 23 24 26 26 26 26 26 25
25 24 22 23 25 24 23 23 23 23 24 25 26 26 26 25 25 25 25 25 25 26 26 25 24 24 24 24 25 25 24 23 23 23 23 24 26 27 28 27 27 26
25 24 23 24 25 24 22 22 22 22 23 24 26 28 28 28 27 26 26 26 26 26 26 26 26 25 24 24 26 26 25 24 24 24 25 26 27 28 28 28 27 26
23 22 22 23 23 21 20 20 21 22 22 23 24 26 27 28 27 26 26 26 26 26 27 28 27 27 26 26 26 27 27 28 26 26 26 27 28 28 28 27 27 26
20 19 19 20 21 20 21 21 22 23 24 24 24 25 26 26 25 26 27 27 27 27 28 28 28 29 28 28 29 30 30 31 30 28 27 28 28 29 28 27 26 26
20 19 19 21 21 21 23 23 23 24 25 25 25 25 26 27 28 29 31 32 30 30 30 30 31 30 29 29 32 33 32 32 31 29 29 28 28 27 27 26 26 26
19 19 20 21 22 22 23 23 23 23 23 24 25 27 28 28 27 27 28 30 29 29 29 29 30 31 31 33 33 32 31 31 30 29 29 28 27 26 26 26 27 27
18 19 20 21 22 23 22 22 23 23 23 24 25 25 23 21 19 18 18 18 20 21 22 23 24 26 29 31 30 28 28 28 28 28 28 27 27 26 26 27 27 28
18 19 20 21 22 23 22 22 23 24 24 24 24 22 19 17 17 17 16 16 16 18 19 21 21 22 23 25 25 25 25 26 26 27 27 26 27 28 28 28 29 30
19 19 20 20 20 21 21 22 24 25 25 24 23 20 19 18 18 19 19 20 20 20 20 20 21 22 23 23 24 24 25 25 26 27 28 28 28 30 31 31 32 34
21 21 21 20 20 20 21 21 23 24 24 23 22 21 21 21 20 20 20 21 21 21 21 22 22 23 23 24 25 26 27 28 29 30 31 32 32 34 35 35 37 38
Wind_Direction
244 240 241 232 219 228 256 258 255 255 250 244 241 238 238 240 240 238 237 240 242 245 247 249 252 254 256 259 260 260 259 257 256 256 259 261 262 262 262 263 264 266
254 246 242 230 227 247 259 248 248 247 241 237 234 231 232 236 237 235 235 237 240 243 246 250 254 256 258 258 257 256 254 253 253 254 258 261 264 267 269 270 272 272
259 249 240 232 236 251 250 241 242 237 232 231 229 228 229 231 234 235 235 236 238 240 244 249 254 256 256 255 254 252 251 253 257 261 263 264 265 267 268 272 275 275
262 253 244 239 242 248 243 240 238 230 227 226 225 227 229 229 233 235 236 238 239 240 243 248 253 255 254 254 254 254 255 258 262 265 267 267 266 265 265 268 271 272
260 252 244 241 242 243 241 239 236 232 225 221 225 229 230 232 235 236 238 240 241 242 244 248 252 255 256 256 257 258 259 261 263 264 267 267 266 264 262 263 264 266
251 241 239 240 241 243 241 237 236 233 222 224 237 236 233 235 236 237 239 238 241 243 244 247 251 253 255 256 258 258 259 258 258 260 262 264 264 262 258 257 258 259
240 234 237 240 241 243 241 237 238 233 224 232 243 238 235 237 238 239 239 239 240 242 243 245 247 249 250 251 254 256 256 255 254 255 257 258 259 258 255 254 255 258
241 237 236 237 239 238 236 235 236 231 227 235 240 235 237 242 241 240 239 238 238 239 242 244 244 247 248 249 251 252 252 252 252 252 253 253 254 254 253 255 257 261
244 235 231 235 237 236 234 233 231 228 229 234 235 236 240 242 238 236 235 234 235 238 241 243 244 246 248 249 251 250 251 252 251 252 252 251 250 251 253 256 259 262
244 235 232 234 234 234 235 232 228 228 233 235 233 237 243 239 232 232 233 233 235 239 241 243 245 247 250 252 252 252 253 253 253 254 254 253 251 250 252 256 259 262
248 241 235 232 230 230 230 230 228 227 229 232 235 238 240 239 235 232 233 233 236 241 243 246 247 250 254 254 252 252 254 256 256 255 255 255 254 252 254 257 259 261
246 243 235 229 228 228 228 227 228 228 225 227 235 238 236 239 239 235 234 235 238 242 245 247 250 253 254 252 250 251 253 257 259 259 258 257 256 254 254 255 257 258
244 242 233 226 226 227 227 227 226 228 226 224 229 234 236 239 239 237 237 238 239 243 245 247 250 252 251 250 249 250 252 256 259 261 261 258 256 255 253 252 252 252
243 240 232 226 227 227 227 230 230 229 228 227 227 231 235 238 239 240 241 241 242 244 245 247 250 251 250 250 250 250 252 255 257 258 258 256 254 252 250 250 249 248
241 241 235 229 231 230 228 231 234 233 232 231 231 232 235 237 240 243 244 245 247 247 246 248 251 253 252 252 253 253 254 256 256 256 256 255 252 251 250 249 249 249
237 241 239 234 235 235 231 231 234 237 236 234 233 233 232 234 239 243 245 248 250 250 250 249 251 253 254 254 254 255 257 260 259 256 255 255 253 252 251 251 250 251
234 237 238 238 237 236 235 234 233 236 237 235 234 233 234 237 240 243 247 250 251 253 253 252 251 252 251 253 254 255 258 262 263 260 258 256 254 253 253 252 252 252
234 233 232 235 238 236 237 238 236 237 239 238 238 240 244 248 249 248 248 250 251 253 253 252 252 253 253 254 255 256 258 261 263 263 261 259 257 256 254 253 253 252
233 232 230 234 239 238 239 242 240 240 241 242 243 246 250 254 256 254 251 250 252 252 251 252 254 256 257 258 257 258 260 261 263 263 263 262 260 258 258 257 257 256
228 229 230 237 241 242 245 250 248 245 245 246 248 249 251 253 256 258 257 255 255 252 249 249 252 255 259 259 258 257 258 260 261 261 261 262 262 261 261 262 262 261
227 231 233 236 238 238 240 244 248 248 248 251 254 255 256 257 259 261 262 263 262 259 255 253 253 254 256 257 256 255 255 258 260 260 259 260 260 261 261 263 266 266
231 236 235 235 236 236 237 240 244 247 249 254 258 260 259 259 259 260 261 263 262 258 255 254 254 252 250 251 256 261 261 259 259 259 259 258 258 259 261 264 267 269
235 237 237 237 240 242 243 244 246 248 250 252 253 255 256 255 253 253 254 254 254 252 251 254 257 256 252 252 258 264 264 260 259 259 260 259 260 262 262 262 263 263
233 237 238 239 241 242 241 241 242 243 246 250 253 256 257 254 248 246 245 243 244 247 250 254 257 257 255 255 257 260 260 258 257 258 258 259 261 262 262 260 259 259
235 238 238 237 238 240 241 241 243 244 246 252 258 259 258 254 248 245 245 246 246 248 250 253 255 255 256 256 257 257 257 257 256 257 258 259 261 262 262 260 259 261
245 244 242 240 239 240 242 245 248 249 249 251 254 253 252 253 250 246 246 248 250 252 253 256 258 260 262 262 262 262 262 262 262 262 262 263 262 262 263 262 261 263
Height
5770 5771 5772 5773 5773 5773 5775 5776 5778 5780 5781 5783 5783 5784 5784 5784 5785 5785 5786 5786 5787 5788 5789 5790 5791 5792 5793 5794 5795 5795 5796 5796 5796 5797 5797 5797 5798 5798 5798 5798 5799 5799
5768 5769 5770 5771 5772 5772 5773 5775 5776 5778 5780 5781 5781 5782 5782 5782 5783 5783 5784 5785 5786 5787 5788 5789 5789 5790 5791 5792 5793 5794 5794 5794 5795 5795 5796 5796 5796 5796 5796 5796 5796 5797
5766 5767 5767 5768 5770 5771 5772 5773 5775 5776 5777 5778 5779 5779 5780 5780 5781 5782 5783 5784 5785 5786 5786 5787 5788 5789 5790 5790 5791 5792 5793 5793 5793 5794 5794 5794 5794 5795 5795 5794 5794 5795
5764 5765 5766 5767 5768 5769 5770 5771 5773 5774 5775 5776 5776 5777 5778 5778 5779 5780 5782 5783 5783 5784 5785 5786 5786 5787 5788 5789 5789 5790 5791 5791 5792 5792 5792 5793 5793 5794 5794 5793 5793 5793
5762 5763 5764 5765 5766 5767 5768 5769 5771 5772 5772 5773 5774 5775 5776 5777 5778 5779 5780 5781 5781 5782 5783 5784 5784 5785 5786 5787 5787 5788 5789 5789 5790 5790 5791 5791 5791 5792 5792 5792 5792 5792
5759 5760 5762 5763 5764 5765 5766 5768 5769 5769 5770 5772 5772 5773 5774 5775 5776 5777 5778 5779 5779 5780 5781 5782 5783 5783 5784 5785 5785 5786 5786 5787 5788 5788 5789 5790 5790 5790 5791 5791 5790 5791
5756 5757 5759 5761 5762 5763 5764 5765 5766 5767 5769 5770 5771 5772 5773 5774 5775 5776 5776 5777 5778 5778 5779 5780 5781 5782 5782 5783 5783 5784 5784 5785 5786 5787 5787 5788 5788 5789 5789 5789 5788 5789
5754 5755 5757 5758 5759 5760 5761 5763 5764 5765 5767 5768 5769 5770 5771 5772 5773 5774 5774 5775 5776 5777 5778 5779 5780 5780 5781 5781 5781 5782 5782 5783 5784 5784 5785 5786 5786 5787 5787 5786 5786 5787
5753 5754 5755 5756 5757 5758 5759 5760 5762 5764 5765 5766 5767 5768 5769 5770 5771 5772 5772 5773 5774 5775 5776 5777 5778 5779 5779 5780 5780 5780 5780 5781 5781 5782 5783 5783 5784 5784 5784 5784 5784 5785
5752 5752 5753 5754 5755 5756 5757 5758 5760 5762 5763 5764 5765 5766 5767 5768 5769 5770 5771 5772 5772 5773 5774 5775 5776 5777 5777 5778 5778 5778 5778 5779 5779 5780 5780 5780 5781 5782 5782 5782 5782 5783
5750 5750 5751 5752 5752 5754 5755 5756 5758 5759 5760 5762 5763 5764 5765 5766 5766 5767 5768 5770 5770 5771 5772 5773 5774 5775 5775 5776 5776 5776 5776 5776 5777 5777 5777 5778 5778 5779 5779 5779 5780 5780
5748 5747 5748 5748 5749 5751 5752 5754 5755 5757 5758 5759 5761 5762 5762 5763 5764 5765 5766 5767 5768 5769 5770 5771 5772 5772 5773 5773 5774 5774 5774 5774 5774 5775 5775 5775 5775 5776 5776 5776 5777 5777
5745 5743 5744 5745 5747 5749 5750 5751 5753 5754 5756 5757 5758 5759 5760 5761 5762 5763 5764 5765 5766 5767 5768 5769 5770 5770 5771 5771 5771 5772 5772 5772 5772 5772 5772 5772 5773 5773 5773 5773 5774 5774
5742 5741 5741 5743 5745 5747 5748 5749 5751 5752 5753 5755 5756 5757 5758 5759 5760 5760 5761 5763 5764 5764 5765 5766 5767 5768 5769 5769 5769 5770 5770 5770 5770 5770 5770 5770 5770 5770 5770 5770 5771 5771
5739 5739 5740 5742 5743 5745 5746 5747 5748 5750 5751 5752 5753 5754 5756 5757 5757 5758 5759 5760 5761 5762 5763 5764 5765 5766 5766 5767 5767 5768 5768 5768 5768 5767 5767 5767 5767 5767 5767 5767 5768 5768
5737 5737 5738 5740 5741 5743 5743 5744 5746 5747 5748 5750 5751 5752 5753 5754 5755 5756 5757 5758 5759 5760 5761 5762 5763 5763 5763 5764 5764 5765 5765 5765 5765 5765 5765 5765 5764 5764 5764 5765 5765 5766
5735 5735 5737 5737 5738 5740 5741 5742 5744 5745 5746 5747 5749 5750 5751 5752 5753 5753 5754 5755 5756 5757 5758 5759 5760 5760 5760 5761 5761 5762 5762 5762 5762 5762 5762 5762 5762 5762 5762 5762 5763 5763
5733 5734 5735 5735 5735 5737 5738 5740 5741 5742 5744 5745 5746 5747 5748 5749 5750 5751 5751 5752 5753 5754 5755 5756 5756 5757 5758 5758 5758 5759 5759 5759 5759 5759 5759 5759 5759 5759 5759 5760 5761 5761
5731 5732 5732 5733 5734 5735 5736 5737 5738 5740 5741 5742 5744 5745 5746 5746 5747 5748 5748 5749 5750 5751 5752 5753 5753 5754 5754 5755 5755 5755 5756 5756 5756 5756 5756 5756 5756 5756 5757 5757 5758 5759
5729 5729 5731 5732 5732 5733 5734 5735 5736 5737 5738 5740 5741 5742 5743 5743 5744 5745 5745 5746 5747 5748 5749 5750 5750 5751 5751 5751 5751 5752 5752 5752 5753 5754 5754 5753 5754 5754 5755 5755 5756 5757
5727 5728 5729 5730 5730 5732 5733 5733 5734 5735 5736 5737 5738 5739 5740 5740 5741 5741 5741 5742 5744 5744 5745 5746 5747 5747 5747 5747 5747 5748 5749 5749 5749 5750 5751 5751 5752 5752 5753 5753 5754 5755
5725 5726 5727 5728 5728 5729 5730 5731 5732 5733 5733 5734 5735 5736 5736 5737 5737 5737 5737 5738 5739 5739 5740 5741 5742 5742 5742 5743 5743 5744 5745 5746 5746 5747 5747 5749 5750 5751 5751 5751 5752 5753
5723 5723 5724 5726 5726 5727 5728 5729 5730 5730 5731 5732 5732 5733 5733 5734 5734 5734 5734 5735 5735 5736 5737 5738 5738 5738 5739 5740 5741 5742 5742 5743 5743 5744 5745 5746 5747 5749 5749 5749 5748 5748
5720 5721 5722 5723 5724 5724 5725 5726 5727 5728 5728 5729 5729 5730 5730 5731 5732 5732 5732 5733 5733 5734 5735 5736 5736 5736 5737 5738 5738 5739 5739 5740 5741 5741 5742 5743 5745 5745 5745 5745 5744 5742
5718 5719 5720 5720 5721 5722 5723 5724 5724 5725 5726 5726 5726 5727 5727 5728 5729 5730 5730 5731 5731 5732 5733 5734 5734 5734 5735 5735 5736 5736 5737 5737 5737 5738 5739 5740 5741 5741 5741 5741 5739 5738
5716 5717 5717 5718 5719 5719 5721 5722 5722 5723 5723 5724 5724 5724 5725 5726 5726 5727 5727 5728 5729 5730 5730 5731 5731 5732 5732 5733 5733 5733 5734 5734 5734 5735 5735 5736 5736 5736 5735 5735 5734 5733